Regional Weather Roundup
Issued by NWS

Home | Current Version | Previous Version | Graphics & Text | Print | Product List | Glossary On
Versions: 1 2 3 4 5 6 7 8 9 10 11 12 13 14 15 16 17 18 19 20 21 22 23 24 25 26 27 28 29 30 31 32 33 34 35 36 37 38 39 40 41 42 43 44 45 46 47 48 49 50
000
ASUS44 KMEG 031800
RWRTN
TENNESSEE HOURLY STATE WEATHER ROUNDUP
NATIONAL WEATHER SERVICE MEMPHIS TN
100 PM CDT TUE MAY 03 2016

TNZ002-004-019-021-049-052-054-088>092-031900-
WEST TENNESSEE

CITY           SKY/WX    TMP DP  RH WIND       PRES   REMARKS
MEMPHIS INTL   CLOUDY    64  49  57 NW12      30.02F
NWS MEMPHIS      N/A     64 N/A N/A MISG        N/A
JACKSON        CLOUDY    63  49  60 NW8       30.00F
DYERSBURG      CLOUDY    63  48  59 W6          N/A
UNION CITY     PTSUNNY   61  50  67 W7        30.00F
LEXINGTON      PTSUNNY   63  52  67 VRB7      29.98F
$$

TNZ008-025-027-028-033-062-065-066-031900-
NORTH MIDDLE TENNESSEE

CITY           SKY/WX    TMP DP  RH WIND       PRES   REMARKS
NASHVILLE      PTSUNNY   63  48  58 N10       29.97F
CLARKSVILLE    CLOUDY    62  48  60 W8        29.97F
COOKEVILLE     PTSUNNY   64  52  63 N7        29.94F
CROSSVILLE     PTSUNNY   64  50  60 W10G18    29.94F
$$

TNZ061-075-076-078-094-096-097-031900-
SOUTH MIDDLE TENNESSEE

CITY           SKY/WX    TMP DP  RH WIND       PRES   REMARKS
TULLAHOMA      PTSUNNY   64  52  63 VRB7      29.96F
WINCHESTER     MOSUNNY   66  52  59 NW8       29.94F
MCMINNVILLE    CLOUDY    63  52  67 NW8       29.95F
COLUMBIA       PTSUNNY   64  54  68 VRB6      29.95F
SHELBYVILLE    MOSUNNY   68  54  60 NW8       29.96F
$$

TNZ017-018-042-046-047-031900-
NORTHEAST TENNESSEE

CITY           SKY/WX    TMP DP  RH WIND       PRES   REMARKS
TRI CITIES     CLOUDY    68  57  68 W8        29.87S
$$

TNZ012-013-036-069-073-074-031900-
CENTRAL EAST TENNESSEE

CITY           SKY/WX    TMP DP  RH WIND       PRES   REMARKS
KNOXVILLE      PTSUNNY   68  53  58 W12       29.88F
OAK RIDGE      MOSUNNY   71  49  45 VRB6      29.90F
GATLINBURG     CLOUDY    64  55  72 NW6       29.88F
$$

TNZ083-085-099-031900-
SOUTHEAST TENNESSEE

CITY           SKY/WX    TMP DP  RH WIND       PRES   REMARKS
CHATTANOOGA    MOSUNNY   71  52  50 NW8       29.90F
$$

SKY/WX REPORTED AS FAIR MEANS FEW OR NO CLOUDS BELOW
12 THOUSAND FEET.





USA.gov is the U.S. government's official web portal to all federal, state and local government web resources and services.